KC2DUX-10 Weather Reports


time (UTC)temp
C
wind
direction
speed
KPH
gust
KPH
rain 1hr
cm
rain 24hr
cm
rain mn
cm
humidity
%
barometer
mb
20210518213513 -17 167 14.5 27.4 0.00 0.03 0.03 1025.8
20210518213046 -17 183 16.1 29.0 0.00 0.03 0.03 1025.8
20210518212510 -17 184 17.7 27.4 0.00 0.03 0.03 1025.8
20210518212009 -17 181 12.9 24.1 0.00 0.03 0.03 1025.8
20210518211516 -17 180 14.5 25.7 0.00 0.03 0.03 1025.8
20210518211006 -17 193 14.5 27.4 0.00 0.03 0.03 1025.9
20210518210523 -17 180 16.1 32.2 0.00 0.03 0.03 1025.9
20210518210005 -17 198 17.7 27.4 0.00 0.03 0.03 1026.0
20210518205501 -17 178 14.5 29.0 0.00 0.03 0.03 1026.0
20210518205112 -17 198 16.1 29.0 0.00 0.03 0.03 1026.1
20210518204735 -17 190 17.7 25.7 0.00 0.03 0.03 1026.1
20210518204059 -17 202 16.1 25.7 0.00 0.03 0.03 1026.1
20210518203557 -17 188 12.9 32.2 0.00 0.03 0.03 1026.3
20210518203110 -17 199 16.1 30.6 0.00 0.03 0.03 1026.3
20210518202552 -17 153 17.7 27.4 0.00 0.03 0.03 1026.3
20210518202051 -17 182 17.7 29.0 0.00 0.03 0.03 1026.4
20210518201641 -17 192 16.1 29.0 0.00 0.03 0.03 1026.5
20210518201047 -17 173 20.9 33.8 0.00 0.03 0.03 1026.4
20210518200546 -17 190 17.7 25.7 0.00 0.03 0.03 1026.4
20210518200127 -17 169 12.9 24.1 0.00 0.03 0.03 1026.5
20210518195552 -17 186 14.5 29.0 0.00 0.03 0.03 1026.4
20210518195042 -17 184 16.1 29.0 0.00 0.03 0.03 1026.6
20210518194554 -17 181 14.5 22.5 0.00 0.03 0.03 1026.7
20210518194039 -17 199 11.3 17.7 0.00 0.03 0.03 1026.7
20210518193537 -17 192 9.7 22.5 0.00 0.03 0.03 1026.7
20210518193140 -17 184 12.9 22.5 0.00 0.03 0.03 1026.7
20210518192538 -17 171 11.3 17.7 0.00 0.03 0.03 1026.8
20210518192033 -17 185 11.3 17.7 0.00 0.03 0.03 1026.8
20210518191558 -17 157 12.9 17.7 0.00 0.03 0.03 1026.9
20210518191031 -17 194 11.3 17.7 0.00 0.03 0.03 1027.0
20210518190541 -17 167 11.3 25.7 0.00 0.03 0.03 1027.0
20210518190055 -17 194 14.5 25.7 0.00 0.03 0.03 1027.1
20210518185527 -17 179 16.1 20.9 0.00 0.03 0.03 1027.2
20210518185026 -17 182 9.7 19.3 0.00 0.03 0.03 1027.2
20210518184608 -17 158 8.0 19.3 0.00 0.03 0.03 1027.3
20210518184023 -17 155 12.9 20.9 0.00 0.03 0.03 1027.3
20210518183522 -17 179 9.7 24.1 0.00 0.03 0.03 1027.4
20210518183034 -17 185 14.5 24.1 0.00 0.03 0.03 1027.4
20210518182518 -17 192 12.9 24.1 0.00 0.03 0.03 1027.4
20210518182016 -17 192 14.5 17.7 0.00 0.03 0.03 1027.4
20210518181523 -17 191 11.3 22.5 0.00 0.03 0.03 1027.5
20210518181022 -17 186 9.7 22.5 0.00 0.03 0.03 1027.5
20210518180511 -17 200 12.9 20.9 0.00 0.03 0.03 1027.5
20210518180015 -17 192 11.3 20.9 0.00 0.03 0.03 1027.6
20210518175535 -17 215 12.9 17.7 0.00 0.03 0.03 1027.7
20210518175012 -17 211 12.9 17.7 0.00 0.03 0.03 1027.7
20210518174506 -17 211 12.9 17.7 0.00 0.03 0.03 1027.8
20210518174005 -17 191 12.9 17.7 0.00 0.03 0.03 1027.7
20210518173506 -17 186 11.3 20.9 0.00 0.03 0.03 1027.8
20210518173002 -17 207 11.3 17.7 0.00 0.03 0.03 1027.8
20210518172559 -17 215 11.3 17.7 0.00 0.03 0.03 1027.8
20210518172100 -17 219 9.7 17.7 0.00 0.03 0.03 1027.9
20210518171643 -17 253 9.7 16.1 0.00 0.03 0.03 1027.9
20210518171058 -17 235 8.0 16.1 0.00 0.03 0.03 1027.9
20210518170553 -17 244 11.3 16.1 0.00 0.03 0.03 1028.1
20210518170149 -17 233 9.7 14.5 0.00 0.03 0.03 1028.1
20210518165550 -17 245 8.0 14.5 0.00 0.03 0.03 1028.1
20210518165048 -17 239 6.4 14.5 0.00 0.03 0.03 1028.1
20210518164622 -17 229 8.0 12.9 0.00 0.03 0.03 1028.2
20210518164046 -17 235 8.0 16.1 0.00 0.03 0.03 1028.2
20210518163545 -17 231 6.4 16.1 0.00 0.03 0.03 1028.3
20210518163049 -17 246 6.4 11.3 0.00 0.03 0.03 1028.4
20210518162542 -17 246 4.8 14.5 0.00 0.03 0.03 1028.5
20210518162045 -17 275 9.7 16.1 0.00 0.03 0.03 1028.6
20210518161541 -17 273 9.7 16.1 0.00 0.03 0.03 1028.6
20210518161037 -17 265 4.8 14.5 0.00 0.03 0.03 1028.5
20210518160536 -17 274 6.4 14.5 0.00 0.03 0.03 1028.6
20210518160102 -17 269 4.8 14.5 0.00 0.03 0.03 1028.6
20210518155539 -17 250 9.7 14.5 0.00 0.03 0.03 1028.6
20210518155035 -17 279 4.8 16.1 0.00 0.03 0.03 1028.6
20210518154554 -17 261 9.7 16.1 0.00 0.03 0.03 1028.8
20210518154028 -17 268 9.7 16.1 0.00 0.03 0.03 1028.8
20210518153527 -17 293 9.7 16.1 0.00 0.03 0.03 1028.8
20210518153047 -17 240 8.0 17.7 0.00 0.03 0.03 1028.9
20210518152538 -17 279 9.7 19.3 0.00 0.03 0.03 1028.9
20210518152038 -17 341 11.3 19.3 0.00 0.03 0.03 1028.9
20210518151541 -17 294 9.7 20.9 0.00 0.03 0.03 1028.9
20210518151019 -17 308 11.3 20.9 0.00 0.03 0.03 1028.8
20210518150518 -17 272 14.5 19.3 0.00 0.03 0.03 1028.8
20210518150042 -17 269 11.3 19.3 0.00 0.03 0.03 1028.8
20210518145519 -17 258 14.5 19.3 0.00 0.03 0.03 1028.8
20210518145013 -17 273 12.9 19.3 0.00 0.03 0.03 1029.0
20210518144512 -17 298 12.9 19.3 0.00 0.03 0.03 1029.0
20210518144010 -17 292 9.7 16.1 0.00 0.03 0.03 1029.0
20210518143509 -17 261 11.3 17.7 0.00 0.03 0.03 1028.9
20210518143043 -17 272 12.9 20.9 0.00 0.03 0.03 1028.9
20210518142506 -17 284 12.9 20.9 0.00 0.03 0.03 1028.9
20210518142005 -17 286 14.5 19.3 0.00 0.03 0.03 1028.9
20210518141504 -17 281 16.1 27.4 0.00 0.03 0.03 1029.0
20210518141001 -17 267 12.9 27.4 0.00 0.03 0.03 1029.0
20210518140607 -17 275 16.1 19.3 0.00 0.03 0.03 1029.0
20210518140205 -17 290 12.9 19.3 0.00 0.03 0.03 1028.9
20210518135558 -17 284 12.9 19.3 0.00 0.03 0.03 1029.0
20210518135058 -17 256 14.5 20.9 0.00 0.03 0.03 1029.0
20210518134740 -17 256 16.1 20.9 0.00 0.03 0.03 1029.0
20210518134054 -17 265 12.9 19.3 0.00 0.03 0.03 1029.0
20210518133616 -17 257 12.9 19.3 0.00 0.03 0.03 1029.0
20210518133102 -17 280 14.5 19.3 0.00 0.03 0.03 1029.1
20210518132553 -17 283 14.5 17.7 0.00 0.03 0.03 1029.0
20210518132108 -17 272 12.9 16.1 0.00 0.03 0.03 1028.9
20210518131720 -17 280 11.3 16.1 0.00 0.03 0.03 1028.9
20210518131043 -17 272 11.3 17.7 0.00 0.03 0.03 1028.8
20210518130606 -17 285 12.9 17.7 0.00 0.03 0.03 1028.6
20210518130106 -17 260 12.9 16.1 0.00 0.03 0.03 1028.6
20210518125539 -17 242 8.0 14.5 0.00 0.03 0.03 1028.5
20210518125038 -17 243 9.7 14.5 0.00 0.03 0.03 1028.4
20210518124634 -17 235 8.0 16.1 0.00 0.03 0.03 1028.3
20210518124101 -17 242 9.7 16.1 0.00 0.03 0.03 1028.3
20210518123537 -17 246 11.3 14.5 0.00 0.03 0.03 1028.2
20210518123054 -17 219 4.8 14.5 0.00 0.03 0.03 1028.2
20210518122556 -17 235 8.0 11.3 0.00 0.03 0.03 1028.2
20210518122046 -17 221 6.4 11.3 0.00 0.03 0.03 1028.1
20210518121552 -17 242 8.0 14.5 0.00 0.03 0.03 1028.1
20210518121026 -17 236 6.4 12.9 0.00 0.03 0.03 1028.1
20210518120524 -17 248 6.4 11.3 0.00 0.03 0.03 1028.0
20210518120026 -17 244 4.8 11.3 0.00 0.03 0.03 1027.9
20210518115523 -17 231 6.4 11.3 0.00 0.03 0.03 1028.0
20210518115020 -17 250 4.8 9.7 0.00 0.03 0.03 1028.0
20210518114535 -17 360 3.2 9.7 0.00 0.03 0.03 1027.9
20210518114017 -17 360 6.4 9.7 0.00 0.03 0.03 1028.0
20210518113519 -17 360 4.8 8.0 0.00 0.03 0.03 1027.9
20210518113046 -17 252 4.8 11.3 0.00 0.03 0.03 1027.8
20210518112519 -17 360 6.4 11.3 0.00 0.03 0.03 1027.8
20210518112016 -17 250 6.4 12.9 0.00 0.03 0.03 1027.6
20210518111511 -17 244 6.4 12.9 0.00 0.03 0.03 1027.6
20210518111008 -17 248 4.8 12.9 0.00 0.03 0.03 1027.5
20210518110510 -17 239 4.8 12.9 0.00 0.03 0.03 1027.4
20210518110008 -17 248 4.8 11.3 0.00 0.03 0.03 1027.3
20210518105505 -17 252 6.4 11.3 0.00 0.03 0.03 1027.3
20210518105009 -17 256 6.4 11.3 0.00 0.03 0.03 1027.3
20210518104103 -17 242 4.8 6.4 0.00 0.03 0.03 1027.3
20210518103558 -17 245 4.8 6.4 0.00 0.03 0.03 1027.2
20210518103141 -17 247 1.6 6.4 0.00 0.03 0.03 1027.2
20210518102557 -17 360 3.2 8.0 0.00 0.03 0.03 1027.2
20210518102053 -17 248 4.8 11.3 0.00 0.03 0.03 1027.1
20210518101704 -17 251 6.4 11.3 0.00 0.03 0.03 1027.1
20210518101121 -17 256 6.4 8.0 0.00 0.03 0.03 1027.0
20210518100557 -17 257 4.8 8.0 0.00 0.03 0.03 1027.0
20210518100155 -17 261 4.8 6.4 0.00 0.03 0.03 1027.1
20210518095545 -17 261 4.8 6.4 0.00 0.03 0.03 1027.0
20210518095050 -17 248 4.8 8.0 0.00 0.03 0.03 1027.0
20210518094559 -17 235 3.2 8.0 0.00 0.03 0.03 1027.0
20210518094043 -17 232 4.8 8.0 0.00 0.03 0.03 1027.0
20210518093543 -17 225 4.8 8.0 0.00 0.03 0.03 1027.0
20210518093114 -17 238 4.8 12.9 0.00 0.03 0.03 1027.0
20210518092545 -17 243 4.8 12.9 0.00 0.03 0.03 1026.9
20210518092039 -17 233 6.4 11.3 0.00 0.03 0.03 1026.8
20210518091550 -17 221 6.4 11.3 0.00 0.03 0.03 1026.8
20210518091033 -17 223 6.4 11.3 0.00 0.03 0.03 1026.8
20210518090533 -17 211 6.4 9.7 0.00 0.03 0.03 1026.8
20210518090034 -17 213 4.8 8.0 0.00 0.03 0.03 1026.8
20210518085528 -17 216 4.8 8.0 0.00 0.03 0.03 1026.7
20210518085033 -17 218 4.8 8.0 0.00 0.03 0.03 1026.7
20210518084609 -17 217 6.4 8.0 0.00 0.03 0.03 1026.6
20210518084023 -17 219 6.4 8.0 0.00 0.03 0.03 1026.5
20210518083530 -17 226 4.8 6.4 0.00 0.03 0.03 1026.5
20210518083024 -17 240 3.2 6.4 0.00 0.03 0.03 1026.5
20210518082545 -17 360 3.2 8.0 0.00 0.03 0.03 1026.4
20210518082018 -17 360 4.8 8.0 0.00 0.03 0.03 1026.4
20210518081521 -17 360 6.4 8.0 0.00 0.03 0.03 1026.4
20210518081014 -17 360 4.8 8.0 0.00 0.03 0.03 1026.4
20210518080513 -17 360 4.8 6.4 0.00 0.03 0.03 1026.3
20210518080034 -17 360 3.2 8.0 0.00 0.03 0.03 1026.3
20210518075515 -17 360 4.8 8.0 0.00 0.03 0.03 1026.4
20210518075016 -17 360 4.8 8.0 0.00 0.03 0.03 1026.4
20210518074536 -17 360 4.8 8.0 0.00 0.03 0.03 1026.4
20210518074006 -17 360 4.8 8.0 0.00 0.03 0.03 1026.4
20210518073504 -17 360 6.4 8.0 0.00 0.03 0.03 1026.4
20210518073005 -17 360 4.8 12.9 0.00 0.03 0.03 1026.4
20210518072501 -17 360 6.4 12.9 0.00 0.03 0.03 1026.5
20210518072127 -17 360 6.4 9.7 0.00 0.03 0.03 1026.4
20210518071630 -17 360 6.4 8.0 0.00 0.03 0.03 1026.4
20210518071104 -17 360 6.4 12.9 0.00 0.03 0.03 1026.3
20210518070606 -17 360 6.4 12.9 0.00 0.03 0.03 1026.3
20210518070136 -17 360 6.4 14.5 0.00 0.03 0.03 1026.2
20210518065603 -17 360 6.4 14.5 0.00 0.03 0.03 1026.2
20210518065133 -17 194 6.4 11.3 0.00 0.03 0.03 1026.2
20210518064601 -17 360 6.4 9.7 0.00 0.03 0.03 1026.2
20210518064049 -17 198 6.4 9.7 0.00 0.03 0.03 1026.2
20210518063546 -17 202 4.8 9.7 0.00 0.03 0.03 1026.1
20210518063239 -17 205 4.8 9.7 0.00 0.03 0.03 1026.2
20210518062543 -17 190 6.4 9.7 0.00 0.03 0.03 1026.2
20210518062042 -17 188 6.4 9.7 0.00 0.03 0.03 1026.2
20210518061614 -17 182 4.8 8.0 0.00 0.03 0.03 1026.2
20210518061039 -17 186 4.8 9.7 0.00 0.03 0.03 1026.2
20210518060537 -17 184 6.4 9.7 0.00 0.03 0.03 1026.2
20210518060131 -17 182 4.8 8.0 0.00 0.03 0.03 1026.2
20210518055535 -17 190 4.8 8.0 0.00 0.03 0.03 1026.2
20210518055037 -17 198 4.8 8.0 0.00 0.03 0.03 1026.2
20210518054604 -17 199 4.8 6.4 0.00 0.03 0.03 1026.2
20210518054034 -17 210 3.2 6.4 0.00 0.03 0.03 1026.3
20210518053548 -17 360 3.2 6.4 0.00 0.03 0.03 1026.3
20210518053105 -17 360 4.8 8.0 0.00 0.03 0.03 1026.3
20210518052525 -17 360 3.2 8.0 0.03 0.03 0.03 1026.3
20210518052024 -17 360 4.8 9.7 0.03 0.03 0.03 1026.4
20210518051550 -17 360 6.4 9.7 0.03 0.03 0.03 1026.4
20210518051021 -17 360 6.4 9.7 0.03 0.03 0.03 1026.4
20210518050523 -17 360 6.4 8.0 0.03 0.03 0.03 1026.3
20210518050036 -17 360 4.8 8.0 0.03 0.03 0.03 1026.4
20210518045517 -17 360 4.8 9.7 0.03 0.03 0.03 1026.4
20210518045019 -17 360 6.4 9.7 0.03 0.03 0.03 1026.4
20210518044523 -17 360 4.8 8.0 0.03 0.03 0.03 1026.4
20210518044012 -17 360 4.8 8.0 0.03 0.03 0.03 1026.5
20210518043512 -17 360 4.8 9.7 0.03 0.03 0.03 1026.5
20210518043011 -17 360 4.8 9.7 0.03 0.03 0.03 1026.5
20210518042510 -17 360 4.8 9.7 0.00 0.00 0.00 1026.5
20210518042006 -17 360 4.8 8.0 0.00 0.00 0.00 1026.5
20210518041507 -17 360 3.2 8.0 0.00 0.00 0.00 1026.6
20210518041003 -17 360 4.8 9.7 0.00 0.00 0.00 1026.5
20210518040505 -17 360 4.8 9.7 0.00 0.00 0.00 1026.5
20210518040211 -17 360 4.8 8.0 0.00 0.00 0.00 1026.5
20210518035559 -17 360 4.8 8.0 0.00 0.00 0.00 1026.6
20210518035058 -17 360 4.8 8.0 0.00 0.00 0.00 1026.5
20210518034704 -17 360 6.4 8.0 0.00 0.00 0.00 1026.5
20210518034114 -17 360 4.8 9.7 0.00 0.00 0.00 1026.5
20210518033606 -17 360 4.8 9.7 0.00 0.00 0.00 1026.4
20210518033151 -17 360 4.8 9.7 0.00 0.00 0.00 1026.4
20210518032551 -17 360 6.4 9.7 0.00 0.00 0.00 1026.5
20210518032049 -17 360 6.4 9.7 0.00 0.00 0.00 1026.4
20210518031644 -17 360 4.8 9.7 0.00 0.00 0.00 1026.4
20210518031045 -17 360 6.4 9.7 0.00 0.00 0.00 1026.4
20210518030606 -17 360 4.8 12.9 0.00 0.00 0.00 1026.4
20210518030108 -17 360 6.4 12.9 0.00 0.00 0.00 1026.4
20210518025541 -17 360 4.8 9.7 0.00 0.00 0.00 1026.3
20210518025043 -17 360 4.8 9.7 0.00 0.00 0.00 1026.3
20210518024625 -17 360 4.8 9.7 0.00 0.00 0.00 1026.3
20210518024036 -17 360 4.8 8.0 0.00 0.00 0.00 1026.3
20210518023546 -17 200 4.8 9.7 0.00 0.00 0.00 1026.3
20210518023106 -17 188 4.8 8.0 0.00 0.00 0.00 1026.3
20210518022559 -17 192 4.8 8.0 0.00 0.00 0.00 1026.3
20210518022031 -17 192 3.2 9.7 0.00 0.00 0.00 1026.4
20210518021631 -17 186 6.4 11.3 0.00 0.00 0.00 1026.3
20210518021034 -17 197 6.4 11.3 0.00 0.00 0.00 1026.3
20210518020526 -17 192 4.8 11.3 0.00 0.00 0.00 1026.4
20210518020052 -17 192 6.4 11.3 0.00 0.00 0.00 1026.3
20210518015523 -17 195 8.0 12.9 0.00 0.00 0.00 1026.3
20210518015022 -17 180 8.0 12.9 0.00 0.00 0.00 1026.2
20210518014535 -17 184 6.4 11.3 0.00 0.00 0.00 1026.2
20210518014036 -17 184 6.4 11.3 0.00 0.00 0.00 1026.1
20210518013518 -17 198 4.8 9.7 0.00 0.00 0.00 1026.1
20210518013055 -17 182 6.4 9.7 0.00 0.00 0.00 1026.1
20210518012534 -17 195 4.8 9.7 0.00 0.00 0.00 1026.0
20210518012013 -17 186 4.8 8.0 0.00 0.00 0.00 1026.0
20210518011524 -17 173 3.2 11.3 0.00 0.00 0.00 1026.0
20210518011011 -17 192 4.8 12.9 0.00 0.00 0.00 1026.0
20210518010513 -17 191 6.4 11.3 0.00 0.00 0.00 1025.9
20210518010009 -17 191 6.4 11.3 0.00 0.00 0.00 1025.9
20210518005513 -17 191 6.4 11.3 0.00 0.00 0.00 1025.8
20210518005009 -17 184 4.8 11.3 0.00 0.00 0.00 1025.7
20210518004504 -17 184 6.4 11.3 0.00 0.00 0.00 1025.7
20210518004002 -17 179 3.2 11.3 0.00 0.00 0.00 1025.6
20210518003600 -17 179 6.4 11.3 0.00 0.00 0.00 1025.6
20210518003206 -17 191 6.4 11.3 0.00 0.00 0.00 1025.6
20210518002558 -17 166 4.8 9.7 0.00 0.00 0.00 1025.6
20210518002101 -17 169 4.8 11.3 0.00 0.00 0.00 1025.6
20210518001620 -17 171 4.8 9.7 0.00 0.00 0.00 1025.7
20210518001059 -17 173 4.8 11.3 0.00 0.00 0.00 1025.7
20210518000551 -17 184 6.4 11.3 0.00 0.00 0.00 1025.7
20210518000119 -17 187 6.4 9.7 0.00 0.00 0.00 1025.7
20210517235548 -17 178 3.2 9.7 0.00 0.00 0.00 1025.7
20210517235052 -17 188 4.8 9.7 0.00 0.00 0.00 1025.7
20210517234626 -17 178 4.8 8.0 0.00 0.00 0.00 1025.7
20210517234050 -17 170 4.8 8.0 0.00 0.00 0.00 1025.6
20210517233544 -17 184 3.2 9.7 0.00 0.00 0.00 1025.6
20210517233106 -17 173 3.2 9.7 0.00 0.00 0.00 1025.6
20210517232557 -17 175 4.8 9.7 0.00 0.00 0.00 1025.5
20210517232039 -17 169 3.2 8.0 0.00 0.00 0.00 1025.5
20210517231613 -17 150 3.2 11.3 0.00 0.00 0.00 1025.4
20210517231049 -17 173 6.4 14.5 0.00 0.00 0.00 1025.4
20210517230537 -17 167 6.4 16.1 0.00 0.00 0.00 1025.3
20210517230039 -17 360 6.4 16.1 0.00 0.00 0.00 1025.4
20210517225530 -17 360 8.0 14.5 0.00 0.00 0.00 1025.3
20210517225035 -17 171 8.0 16.1 0.00 0.00 0.00 1025.3
20210517224533 -17 168 6.4 14.5 0.00 0.00 0.00 1025.1
20210517224025 -17 159 6.4 16.1 0.00 0.00 0.00 1025.1
20210517223528 -17 148 6.4 19.3 0.00 0.00 0.00 1025.1
20210517223107 -17 178 8.0 19.3 0.00 0.00 0.00 1025.1
20210517222522 -17 175 9.7 17.7 0.00 0.00 0.00 1025.2
20210517222020 -17 186 11.3 17.7 0.00 0.00 0.00 1025.3
20210517221601 -17 180 9.7 16.1 0.00 0.00 0.00 1025.4
20210517221047 -17 172 6.4 14.5 0.00 0.00 0.00 1025.4
20210517220540 -17 186 6.4 16.1 0.00 0.00 0.00 1025.4
20210517220033 -17 172 8.0 19.3 0.00 0.00 0.00 1025.3
20210517215517 -17 360 9.7 17.7 0.00 0.00 0.00 1025.4
20210517215014 -17 360 9.7 17.7 0.00 0.00 0.00 1025.5
20210517214537 -17 175 11.3 17.7 0.00 0.00 0.00 1025.5
20210517214015 -17 172 8.0 16.1 0.00 0.00 0.00 1025.5